Weather History for Fallon NAS, NV

Change the Weather History Date:

Thursday, August 2, 2012

  Actual Average Record
Temperature  
Mean Temperature 78 °F -  
Max Temperature 100 °F 92 °F 104 °F (1969)
Min Temperature 57 °F 53 °F 40 °F (1989)
Cooling Degree Days 14    
Growing Degree Days 28 (Base 50)    
Moisture  
Dew Point 20 °F    
Average Humidity 14    
Maximum Humidity 27    
Minimum Humidity 4    
Precipitation  
Precipitation 0.00 in - - ()
Sea Level Pressure  
Sea Level Pressure 29.98 in    
Wind  
Wind Speed 5 mph (SW)    
Max Wind Speed 12 mph    
Max Gust Speed -    
Visibility 10 miles    
Events      
Averages and records for this station are not official NWS values.
T = Trace of Precipitation, MM = Missing Value Source: NWS Daily Summary

Daily Weather History Graph

Daily Weather History Graph

Search for Another Location

Airport:

Trip Planner

Search our weather history database for the weather conditions in past years. The results will help you decide how hot, cold, wet, or windy it might be!

Date:

Astronomy

Aug. 02, 2012 Rise Set
Actual Time 5:56 AM PDT 8:05 PM PDT
Civil Twilight 5:26 AM PDT 8:35 PM PDT
Nautical Twilight 4:49 AM PDT 9:11 PM PDT
Astronomical Twilight 4:09 AM PDT 9:51 PM PDT
Moon 8:14 PM PDT (8/2) 6:37 AM PDT (8/2)
Length of Visible Light 15h 09m
Length of Day
14h 09m
Waxing Gibbous, 99% of the Moon is Illuminated
Aug 2
Waxing Gibbous
Aug 9
Last Quarter
Aug 17
New
Aug 24
First Quarter
Aug 31
Full

Hourly Weather History & Observations

Time (PDT) Temp. Dew Point Humidity Pressure Visibility Wind Dir Wind Speed Gust Speed Precip Events Conditions
12:56 AM 66.0 °F 25.0 °F 21% 30.01 in 10.0 mi Calm Calm - N/A   Clear
1:56 AM 59.0 °F 25.0 °F 27% 30.01 in 10.0 mi SSE 5.8 mph - N/A   Clear
2:56 AM 61.0 °F 24.1 °F 24% 30.01 in 10.0 mi South 4.6 mph - N/A   Clear
3:56 AM 60.1 °F 21.0 °F 22% 30.01 in 10.0 mi SSE 6.9 mph - N/A   Clear
4:56 AM 57.0 °F 19.0 °F 23% 30.01 in 10.0 mi SSE 9.2 mph - N/A   Clear
5:56 AM 57.0 °F 19.0 °F 23% 30.02 in 10.0 mi SSE 8.1 mph - N/A   Clear
6:12 AM 57.2 °F 19.4 °F 23% 30.12 in 10.0 mi South 8.1 mph - N/A   Clear
6:56 AM 63.0 °F 19.9 °F 19% 30.02 in 10.0 mi South 6.9 mph - N/A   Clear
7:56 AM 71.1 °F 25.0 °F 18% 30.04 in 10.0 mi South 8.1 mph - N/A   Clear
8:56 AM 77.0 °F 30.0 °F 18% 30.04 in 10.0 mi SSW 3.5 mph - N/A   Clear
9:56 AM 82.0 °F 28.9 °F 14% 30.04 in 10.0 mi SSW 3.5 mph - N/A   Clear
10:56 AM 87.1 °F 30.9 °F 13% 30.03 in 10.0 mi Variable 3.5 mph - N/A   Clear
11:56 AM 90.0 °F 18.0 °F 7% 30.01 in 10.0 mi Variable 4.6 mph - N/A   Clear
12:56 PM 91.9 °F 15.1 °F 6% 30.00 in 10.0 mi WNW 6.9 mph - N/A   Partly Cloudy
1:56 PM 95.0 °F 12.0 °F 5% 29.98 in 10.0 mi Calm Calm - N/A   Partly Cloudy
2:56 PM 97.0 °F 12.0 °F 4% 29.95 in 10.0 mi Variable 5.8 mph - N/A   Partly Cloudy
3:56 PM 100.0 °F 10.9 °F 4% 29.92 in 10.0 mi NW 8.1 mph - N/A   Partly Cloudy
4:56 PM 98.1 °F 10.9 °F 4% 29.90 in 10.0 mi Calm Calm - N/A   Scattered Clouds
5:56 PM 99.0 °F 14.0 °F 5% 29.88 in 10.0 mi WNW 8.1 mph - N/A   Scattered Clouds
6:56 PM 96.8 °F 12.2 °F 4% 29.88 in 10.0 mi NW 11.5 mph - N/A   Scattered Clouds
7:56 PM 91.0 °F 18.0 °F 7% 29.89 in 10.0 mi NW 8.1 mph - N/A   Scattered Clouds
8:56 PM 81.0 °F 19.9 °F 10% 29.91 in 10.0 mi NW 5.8 mph - N/A   Scattered Clouds
9:56 PM 75.9 °F 23.0 °F 14% 29.92 in 10.0 mi NW 5.8 mph - N/A   Scattered Clouds
10:56 PM 66.9 °F 21.0 °F 17% 29.92 in 10.0 mi Calm Calm - N/A   Clear
11:56 PM 73.9 °F 23.0 °F 15% 29.93 in 10.0 mi Calm Calm - N/A   Clear